Weather History for Baraboo, WI

Change the Weather History Date:

Tuesday, November 26, 2013

  Actual Average Record
Temperature  
Mean Temperature 22 °F -  
Max Temperature 32 °F 39 °F 67 °F (1990)
Min Temperature 12 °F 22 °F -17 °F (1977)
Degree Days  
Heating Degree Days 43    
Moisture  
Dew Point 12 °F    
Average Humidity 61    
Maximum Humidity 81    
Minimum Humidity 41    
Precipitation  
Precipitation 0.00 in - - ()
Sea Level Pressure  
Sea Level Pressure 30.08 in    
Wind  
Wind Speed 9 mph (NW)    
Max Wind Speed 17 mph    
Max Gust Speed 26 mph    
Visibility 10 miles    
Events Snow    
Averages and records for this station are not official NWS values.
T = Trace of Precipitation, MM = Missing Value Source: NWS Daily Summary

Daily Weather History Graph

Daily Weather History Graph

Search for Another Location

Airport:

Trip Planner

Search our weather history database for the weather conditions in past years. The results will help you decide how hot, cold, wet, or windy it might be!

Date:

Astronomy

Nov. 26, 2013 Rise Set
Actual Time 7:06 AM CST 4:25 PM CST
Civil Twilight 6:35 AM CST 4:57 PM CST
Nautical Twilight 5:59 AM CST 5:33 PM CST
Astronomical Twilight 5:25 AM CST 6:07 PM CST
Moon No Moon Rise 12:43 PM CST (11/26)
Length of Visible Light 10h 22m
Length of Day
9h 19m
Last Quarter, 41% of the Moon is Illuminated
Nov 26
Last Quarter
Dec 2
New
Dec 9
First Quarter
Dec 17
Full
Dec 25
Last Quarter

Hourly Weather History & Observations

Time (CST) Temp. Windchill Dew Point Humidity Pressure Visibility Wind Dir Wind Speed Gust Speed Precip Events Conditions
12:15 AM 31.1 °F 23.1 °F 24.8 °F 77% 30.00 in 10.0 mi WSW 9.2 mph - N/A   Overcast
12:35 AM 31.1 °F 25.4 °F 24.8 °F 77% 29.99 in 10.0 mi WSW 5.8 mph - N/A   Overcast
12:55 AM 31.5 °F 26.8 °F 24.4 °F 75% 29.98 in 10.0 mi WSW 4.6 mph - N/A   Overcast
1:15 AM 31.8 °F 27.3 °F 24.3 °F 74% 29.98 in 10.0 mi WSW 4.6 mph - N/A   Overcast
1:35 AM 31.6 °F 27.0 °F 24.4 °F 75% 29.98 in 10.0 mi WSW 4.6 mph - N/A   Overcast
1:55 AM 31.6 °F 25.1 °F 24.4 °F 75% 29.99 in 10.0 mi SW 6.9 mph - N/A   Overcast
2:15 AM 31.6 °F 28.3 °F 24.4 °F 75% 29.99 in 10.0 mi SW 3.5 mph - N/A   Overcast
2:35 AM 31.6 °F 27.0 °F 24.3 °F 74% 29.99 in 10.0 mi WSW 4.6 mph - N/A   Overcast
2:55 AM 31.6 °F 27.0 °F 23.9 °F 73% 29.98 in 10.0 mi SW 4.6 mph - N/A   Overcast
3:15 AM 31.6 °F 25.1 °F 24.1 °F 74% 29.98 in 10.0 mi SW 6.9 mph - N/A   Overcast
3:35 AM 32.0 °F 25.6 °F 23.9 °F 72% 29.99 in 10.0 mi SW 6.9 mph - N/A   Overcast
3:55 AM 32.0 °F 24.8 °F 23.9 °F 72% 29.99 in 10.0 mi WSW 8.1 mph - N/A   Overcast
4:15 AM 32.0 °F 25.6 °F 23.7 °F 71% 29.99 in 10.0 mi West 6.9 mph - N/A   Overcast
4:35 AM 32.4 °F 23.5 °F 23.5 °F 70% 29.99 in 10.0 mi WNW 11.5 mph 16.1 mph N/A   Overcast
4:55 AM 32.0 °F 23.0 °F 22.6 °F 68% 30.00 in 10.0 mi WNW 11.5 mph 17.3 mph N/A   Overcast
5:15 AM 32.0 °F 26.4 °F 21.9 °F 66% 30.00 in 10.0 mi NW 5.8 mph 9.2 mph N/A   Overcast
5:35 AM 30.9 °F 22.8 °F 20.1 °F 64% 30.00 in 10.0 mi NNW 9.2 mph - N/A   Overcast
5:55 AM 30.2 °F 22.6 °F 19.4 °F 64% 30.00 in 10.0 mi NNW 8.1 mph - N/A   Overcast
6:15 AM 29.8 °F 23.0 °F 19.0 °F 64% 30.00 in 10.0 mi NNW 6.9 mph - N/A   Overcast
6:35 AM 29.7 °F 20.7 °F 18.9 °F 64% 30.02 in 10.0 mi WNW 10.4 mph - N/A   Overcast
6:55 AM 29.3 °F 19.1 °F 16.7 °F 59% 30.02 in 10.0 mi WNW 12.7 mph - N/A   Overcast
7:15 AM 28.9 °F 21.1 °F 16.7 °F 60% 30.04 in 10.0 mi WNW 8.1 mph - N/A   Overcast
7:35 AM 28.9 °F 22.8 °F 16.5 °F 60% 30.04 in 10.0 mi West 5.8 mph - N/A   Overcast
7:55 AM 28.9 °F 21.9 °F 16.7 °F 60% 30.04 in 10.0 mi WNW 6.9 mph - N/A   Overcast
8:15 AM 28.9 °F 21.9 °F 16.7 °F 60% 30.04 in 10.0 mi WNW 6.9 mph - N/A   Overcast
8:35 AM 28.8 °F 21.7 °F 16.3 °F 60% 30.05 in 10.0 mi NW 6.9 mph - N/A   Overcast
8:55 AM 28.4 °F 20.4 °F 16.7 °F 62% 30.05 in 10.0 mi North 8.1 mph - N/A   Overcast
9:15 AM 28.0 °F 19.3 °F 16.7 °F 62% 30.04 in 10.0 mi NNW 9.2 mph - N/A   Overcast
9:35 AM 28.2 °F 18.9 °F 14.5 °F 57% 30.04 in 10.0 mi NNW 10.4 mph - N/A   Overcast
9:55 AM 28.4 °F 18.5 °F 14.0 °F 55% 30.04 in 10.0 mi NW 11.5 mph - N/A   Overcast
10:15 AM 28.2 °F 18.3 °F 14.5 °F 57% 30.05 in 10.0 mi NW 11.5 mph 16.1 mph N/A   Overcast
10:35 AM 28.9 °F 20.4 °F 15.4 °F 57% 30.04 in 10.0 mi NW 9.2 mph - N/A   Overcast
10:55 AM 29.7 °F 22.8 °F 14.9 °F 54% 30.03 in 10.0 mi NW 6.9 mph - N/A   Overcast
11:15 AM 30.2 °F 20.8 °F 14.9 °F 53% 30.03 in 10.0 mi WNW 11.5 mph 17.3 mph N/A   Overcast
11:35 AM 26.2 °F 14.2 °F 21.0 °F 81% 30.04 in 1.0 mi NW 15.0 mph 21.9 mph N/A Snow Light Snow
11:55 AM 26.1 °F 15.6 °F 19.4 °F 76% 30.04 in 2.0 mi NW 11.5 mph 17.3 mph N/A Snow Light Snow
12:15 PM 25.7 °F 14.0 °F 17.4 °F 71% 30.04 in 10.0 mi NW 13.8 mph 20.7 mph N/A Snow Light Snow
12:35 PM 25.7 °F 15.1 °F 15.4 °F 65% 30.04 in 10.0 mi NW 11.5 mph 19.6 mph N/A Snow Light Snow
12:55 PM 26.2 °F 15.2 °F 13.6 °F 59% 30.05 in 10.0 mi NW 12.7 mph 18.4 mph N/A   Overcast
1:15 PM 26.1 °F 14.5 °F 12.0 °F 55% 30.05 in 10.0 mi WNW 13.8 mph 17.3 mph N/A   Overcast
1:35 PM 24.1 °F 12.0 °F 13.6 °F 64% 30.07 in 7.0 mi NNW 13.8 mph 25.3 mph N/A Snow Light Snow
1:55 PM 23.0 °F 11.7 °F 14.7 °F 71% 30.07 in 7.0 mi NW 11.5 mph 19.6 mph N/A Snow Light Snow
2:15 PM 23.0 °F 9.2 °F 10.2 °F 58% 30.08 in 10.0 mi NNW 17.3 mph 23.0 mph N/A   Overcast
2:35 PM 22.6 °F 9.6 °F 4.6 °F 46% 30.09 in 10.0 mi NNW 15.0 mph 21.9 mph N/A   Overcast
2:55 PM 23.0 °F 10.1 °F 2.3 °F 41% 30.10 in 10.0 mi NNW 15.0 mph 20.7 mph N/A   Scattered Clouds
3:15 PM 22.6 °F 9.2 °F 1.8 °F 41% 30.11 in 10.0 mi NW 16.1 mph 19.6 mph N/A   Clear
3:35 PM 21.4 °F 8.0 °F 2.1 °F 43% 30.12 in 10.0 mi NW 15.0 mph 26.5 mph N/A   Clear
3:55 PM 20.1 °F 7.5 °F 1.6 °F 45% 30.13 in 10.0 mi NNW 12.7 mph 24.2 mph N/A   Scattered Clouds
4:15 PM 19.0 °F 6.8 °F 1.4 °F 46% 30.13 in 10.0 mi NNW 11.5 mph 18.4 mph N/A   Clear
4:35 PM 18.5 °F 5.5 °F 1.6 °F 48% 30.14 in 10.0 mi NNW 12.7 mph 18.4 mph N/A   Mostly Cloudy
4:55 PM 18.1 °F 5.6 °F 1.2 °F 48% 30.15 in 10.0 mi NNW 11.5 mph 19.6 mph N/A   Scattered Clouds
5:15 PM 17.6 °F 3.7 °F 1.4 °F 49% 30.16 in 10.0 mi NNW 13.8 mph - N/A   Scattered Clouds
5:35 PM 17.2 °F 5.2 °F 2.5 °F 52% 30.17 in 10.0 mi NNW 10.4 mph 17.3 mph N/A   Mostly Cloudy
5:55 PM 16.7 °F 4.5 °F 1.6 °F 52% 30.18 in 10.0 mi NNW 10.4 mph 16.1 mph N/A   Scattered Clouds
6:15 PM 16.3 °F 4.9 °F 2.1 °F 54% 30.18 in 10.0 mi NNW 9.2 mph - N/A   Clear
6:35 PM 16.2 °F 2.5 °F 1.9 °F 54% 30.19 in 10.0 mi NNW 12.7 mph - N/A   Clear
6:55 PM 15.8 °F 3.4 °F 2.3 °F 55% 30.19 in 10.0 mi NNW 10.4 mph 17.3 mph N/A   Clear
7:15 PM 15.4 °F 3.0 °F 2.7 °F 57% 30.19 in 10.0 mi NNW 10.4 mph 18.4 mph N/A   Clear
7:35 PM 14.9 °F 2.3 °F 3.2 °F 60% 30.20 in 10.0 mi NNW 10.4 mph - N/A   Clear
7:55 PM 15.1 °F 1.8 °F 3.4 °F 60% 30.20 in 10.0 mi NNW 11.5 mph 18.4 mph N/A   Clear
8:15 PM 14.7 °F 1.4 °F 3.0 °F 60% 30.21 in 10.0 mi NNW 11.5 mph 16.1 mph N/A   Clear
8:35 PM 14.4 °F 0.2 °F 3.2 °F 61% 30.21 in 10.0 mi NNW 12.7 mph 17.3 mph N/A   Clear
8:55 PM 14.4 °F 0.9 °F 2.7 °F 60% 30.21 in 10.0 mi NNW 11.5 mph 16.1 mph N/A   Clear
9:15 PM 14.0 °F 2.9 °F 2.7 °F 61% 30.21 in 10.0 mi NNW 8.1 mph - N/A   Clear
9:35 PM 13.5 °F 3.3 °F 2.8 °F 63% 30.22 in 10.0 mi NNW 6.9 mph - N/A   Clear
9:55 PM 13.1 °F 1.8 °F 2.3 °F 62% 30.21 in 10.0 mi NNW 8.1 mph - N/A   Clear
10:15 PM 13.1 °F 1.8 °F 1.6 °F 60% 30.22 in 10.0 mi NNW 8.1 mph - N/A   Clear
10:35 PM 12.9 °F -0.2 °F 1.4 °F 60% 30.22 in 10.0 mi NNW 10.4 mph 16.1 mph N/A   Clear
10:55 PM 12.6 °F 0.2 °F 1.4 °F 61% 30.22 in 10.0 mi NNW 9.2 mph - N/A   Clear
11:15 PM 12.2 °F -0.2 °F 1.2 °F 61% 30.22 in 10.0 mi NNW 9.2 mph - N/A   Clear
11:35 PM 12.2 °F 0.7 °F 1.4 °F 62% 30.22 in 10.0 mi NNW 8.1 mph - N/A   Clear
11:55 PM 12.0 °F -0.4 °F 1.4 °F 62% 30.22 in 10.0 mi NNW 9.2 mph 17.3 mph N/A   Clear